Location: *
(55.6049°S, 142.1985°W)
Time: 23:09:10
(UTC+00:00)

NOSS 3-4 (A) - Pass Details

Date: 12 May 2021
Orbit: 872 x 1340 km, 63.4° (Epoch: 06 May)

Event Time Altitude Azimuth Distance (km) Brightness Sun altitude
Exits shadow 14:06:42 44° 238° (WSW) 1,677 4.3 -26.0°
Maximum altitude 14:08:39 53° 196° (SSW) 1,483 4.3 -25.8°
Drops below altitude 10° 14:15:49 10° 120° (ESE) 3,027 6.9 -24.8°
Sets 14:18:29 0° 114° (ESE) 3,918 7.8 -24.4°
